Location: Dackenheim
(49.5215°N, 8.1854°E)
Time: 23:21:43
(UTC+00:00)

UWE-3 - Visible Passes

Search period start: 14 March 2026 00:00
Search period end: 24 March 2026 00:00
Orbit: 545 x 612 km, 97.9° (Epoch: 14 March)

Date Brightness Start Highest point End Pass type
(mag) Time Alt. Az. Time Alt. Az. Time Alt. Az.
14 Mar ? 02:21:10 10° NNE 02:23:14 28° NNE 02:23:14 28° NNE visible
14 Mar ? 03:57:47 10° NNW 03:59:33 14° NW 03:59:33 14° NW visible
15 Mar ? 02:25:38 10° NNE 02:27:53 30° NNE 02:27:53 30° NNE visible
15 Mar ? 04:02:27 10° NNW 04:04:12 13° NW 04:04:12 13° NW visible
16 Mar ? 02:30:06 10° NNE 02:32:31 33° NNE 02:32:31 33° NNE visible
16 Mar ? 04:07:11 10° NNW 04:08:50 12° NW 04:08:50 12° NW visible
17 Mar ? 02:34:33 10° NNE 02:37:08 36° N 02:37:08 36° N visible
17 Mar ? 04:11:58 10° NW 04:13:22 11° NW 04:13:27 11° NW visible
18 Mar ? 01:05:16 10° NE 01:05:26 11° ENE 01:05:26 11° ENE visible
18 Mar ? 02:39:00 10° N 02:41:45 38° N 02:41:45 38° N visible
18 Mar ? 04:16:56 10° NW 04:17:43 10° NW 04:18:03 10° WNW visible
19 Mar ? 01:09:26 10° NE 01:10:01 12° ENE 01:10:01 12° ENE visible
19 Mar ? 02:43:26 10° N 02:46:20 40° N 02:46:20 40° N visible
20 Mar ? 01:13:39 10° NE 01:14:36 13° ENE 01:14:36 13° ENE visible
20 Mar ? 02:47:52 10° N 02:50:54 42° NNW 02:50:54 42° NNW visible
21 Mar ? 01:17:53 10° NE 01:19:10 15° ENE 01:19:10 15° ENE visible
21 Mar ? 02:52:17 10° N 02:55:28 42° NNW 02:55:28 42° NNW visible
22 Mar ? 01:22:07 10° NE 01:23:42 17° ENE 01:23:42 17° ENE visible
22 Mar ? 02:56:42 10° N 03:00:00 41° NW 03:00:00 41° NW visible
23 Mar ? 01:26:22 10° NE 01:28:14 18° ENE 01:28:14 18° ENE visible
23 Mar ? 03:01:07 10° N 03:04:32 40° NW 03:04:32 40° NW visible
